Location: Banios
(43.0451°N, 0.2335°E)
Time: 08:21:27
(UTC+00:00)

A-11 Canister half - Pass Details

Date: 07 December 2021
Orbit: 1516 x 1684 km, 47.2° (Epoch: 22 January)

Event Time Altitude Azimuth Distance (km) Brightness Sun altitude
Rises 04:00:31 0° 190° (S) 4,690 11.5 -35.0°
Reaches altitude 10° 04:04:15 10° 178° (S) 3,733 11.0 -34.3°
Maximum altitude 04:11:23 25° 128° (SE) 2,806 10.8 -33.0°
Drops below altitude 10° 04:18:41 10° 79° (E) 3,847 11.9 -31.7°
Sets 04:22:35 0° 67° (ENE) 4,863 12.5 -31.0°
